[[{"header":{"parameterUnit":"m.s-1","parameterCategory":2,"la1":30.2991,"la2":30.254,"lo1":-89.0895,"lo2":-89.0444,"dy":0.0017,"dx":0.0017,"nx":28,"ny":28,"refTime":"2025-09-13T03:00:00:Z","depth":"0","parameterNumber":2,"parameterNumberName":"U-component_of_CURRENTS"},"data":[0,0,0,0,0,0,0,0,0,0,0,0,0,0,0,0,0,0,0,0,0,0,0,0,0,0,0,0,0,0,0,0,0,0,0,0,0,0,0,0,0,0,0,0,0,0,0,0,0,0,0,0,0,0,0,0,0,0,-0.0707,-0.0707,0,-0.073,-0.073,-0.073,-0.0688,-0.0687,-0.0686,-0.0685,-0.0599,-0.0598,-0.0596,0,0,0,0,0,0,0,0,0,0,0,0,0,-0.064,-0.0641,-0.0707,-0.0707,-0.0708,-0.073,-0.073,-0.073,-0.0688,-0.0687,-0.0686,-0.0684,-0.0599,-0.0598,-0.0596,0,0,0,0,0,0,0,0,0,0,0,0,0,-0.0664,-0.0642,-0.0706,-0.0692,-0.0691,-0.073,-0.073,-0.073,-0.0689,-0.0687,-0.0685,-0.0684,-0.06,-0.0598,-0.0596,-0.0617,0,0,-0.059,-0.0589,0,0,0,0,0,0,0,0,-0.0662,-0.0666,-0.0694,-0.0693,-0.0693,-0.0708,-0.0676,-0.0688,-0.0689,-0.0686,-0.0685,-0.0683,-0.0629,-0.0624,-0.0629,-0.0613,-0.0609,-0.059,-0.0589,-0.0588,-0.0588,0,0,0,0,0,0,0,-0.0661,-0.0665,-0.0712,-0.0695,-0.0694,-0.069,-0.0691,-0.0678,-0.0661,-0.0686,-0.0684,-0.0693,-0.0627,-0.0631,-0.0626,-0.0608,-0.059,-0.0588,-0.0587,-0.0587,-0.0613,-0.0615,0,0,0,0,0,0,-0.0667,-0.0663,-0.0712,-0.0713,-0.0677,-0.0693,-0.0694,-0.0702,-0.0664,-0.0658,-0.0694,-0.0691,-0.0635,-0.0629,-0.0623,-0.0671,-0.0588,-0.0586,-0.0585,-0.0611,-0.0614,-0.0616,0,0,0,0,0,0,-0.0665,-0.0671,-0.0711,-0.0691,-0.0697,-0.0696,-0.0705,-0.0703,-0.0708,-0.0672,-0.0663,-0.0701,-0.0633,-0.0626,-0.0626,-0.0666,-0.0586,-0.0584,-0.0609,-0.0612,-0.0615,-0.075,0,0,0,0,0,0,-0.0663,-0.067,-0.0677,-0.0692,-0.0698,-0.0749,-0.0707,-0.0705,-0.0717,-0.0713,-0.0675,-0.0666,-0.0632,-0.063,-0.0624,-0.0662,-0.0582,-0.0607,-0.0611,-0.0614,-0.0743,-0.0757,-0.0769,0,0,0,0,0,-0.066,-0.0686,-0.0678,-0.0684,-0.0709,-0.0751,-0.0755,-0.0745,-0.072,-0.0739,-0.0712,-0.0667,-0.0648,-0.063,-0.0623,-0.0661,-0.0605,-0.061,-0.0614,-0.0737,-0.0754,-0.0768,0,0,0,0,0,0,-0.0675,-0.0685,-0.0676,-0.0706,-0.0731,-0.0745,-0.0763,-0.0755,-0.0751,-0.0737,-0.0692,-0.0683,-0.0695,-0.0662,-0.0644,-0.0679,-0.0619,-0.0622,-0.0715,-0.073,-0.0743,-0.0759,-0.0581,0,0,0,0,0,-0.068,-0.069,-0.0712,-0.0738,-0.0751,-0.0757,-0.077,-0.0767,-0.0768,-0.0764,-0.0742,-0.0717,-0.071,-0.0707,-0.0689,-0.0714,-0.0737,-0.0732,-0.0745,-0.0756,-0.0766,-0.0848,-0.087,-0.0629,-0.0629,-0.0629,0,0,-0.0695,-0.0701,-0.0709,-0.074,-0.0752,-0.0794,-0.076,-0.0791,-0.0826,-0.0755,-0.0786,-0.0757,-0.0725,-0.0751,-0.0754,-0.0728,-0.0846,-0.0762,-0.0772,-0.0775,-0.0855,-0.0879,-0.09,-0.0632,-0.0632,-0.0631,0,0,-0.0736,-0.0736,-0.0759,-0.0784,-0.081,-0.0823,-0.0837,-0.0858,-0.0865,-0.0893,-0.0854,-0.0867,-0.0841,-0.0852,-0.0845,-0.0923,-0.0906,-0.0897,-0.0984,-0.1065,-0.1086,-0.1105,-0.1208,-0.1235,-0.0911,-0.0911,-0.0911,0,-0.0757,-0.0781,-0.0779,-0.0816,-0.0841,-0.0842,-0.0888,-0.0913,-0.0932,-0.0956,-0.0914,-0.0939,-0.0901,-0.097,-0.0977,-0.0957,-0.0994,-0.093,-0.1086,-0.1104,-0.1121,-0.1222,-0.125,-0.0918,-0.0917,-0.0917,-0.0916,0,-0.0813,-0.0838,-0.0861,-0.0899,-0.0933,-0.0973,-0.1008,-0.1044,-0.1042,-0.1064,-0.1121,-0.11,-0.1114,-0.1109,-0.1051,-0.1155,-0.1143,-0.1091,-0.1053,-0.1154,-0.1253,-0.128,-0.0928,-0.0926,-0.0924,-0.0922,0,0,-0.0848,-0.089,-0.0896,-0.0919,-0.0974,-0.1008,-0.1084,-0.1155,-0.1213,-0.1236,-0.1325,-0.1314,-0.13,-0.1293,-0.1259,-0.1316,-0.1462,-0.1242,-0.1243,-0.1358,-0.1663,-0.1504,-0.1517,-0.143,-0.1434,-0.1438,-0.1701,0,-0.0893,-0.0952,-0.0972,-0.1046,-0.1082,-0.1118,-0.1192,-0.1255,-0.1301,-0.139,-0.1416,-0.1464,-0.1376,-0.1383,-0.1436,-0.1438,-0.153,-0.1397,-0.1535,-0.154,-0.1396,-0.1541,-0.1394,-0.16,-0.1727,-0.1731,-0.1734,0,-0.0939,-0.0968,-0.1032,-0.1104,-0.1127,-0.1176,-0.1286,-0.1349,-0.1476,-0.1514,-0.1594,-0.1609,-0.1701,-0.1603,-0.1736,-0.1648,-0.1665,-0.1682,-0.1692,-0.1507,-0.1428,-0.1508,-0.1642,-0.1617,-0.1774,-0.1771,-0.1768,0,-0.0937,-0.1013,-0.1055,-0.1079,-0.1168,-0.1211,-0.126,-0.1377,-0.1447,-0.1594,-0.1671,-0.1783,-0.1838,-0.1896,-0.1886,-0.1826,-0.2036,-0.197,-0.1883,-0.1874,-0.1756,-0.1726,-0.1884,-0.2104,-0.2104,-0.2103,-0.2102,0,-0.0968,-0.1002,-0.1049,-0.1073,-0.1136,-0.12,-0.1294,-0.1369,-0.1511,-0.1619,-0.1714,-0.1829,-0.1901,-0.2007,-0.1997,-0.2019,-0.214,-0.1938,-0.1936,-0.1798,-0.177,-0.1739,-0.1739,-0.2113,-0.2111,-0.2109,-0.2107,0,-0.0955,-0.0987,-0.1032,-0.1108,-0.1129,-0.1164,-0.1274,-0.136,-0.149,-0.1648,-0.1701,-0.1895,-0.2001,-0.2079,-0.2193,-0.2144,-0.2143,-0.2169,-0.2002,-0.197,-0.1783,-0.1794,-0.1955,-0.1903,-0.2142,-0.214,-0.2138,0,-0.0955,-0.0971,-0.1025,-0.1042,-0.1067,-0.1128,-0.1188,-0.1317,-0.1414,-0.1675,-0.1758,-0.1932,-0.2011,-0.2144,-0.2096,-0.2125,-0.2103,-0.2014,-0.1843,-0.1787,-0.1803,-0.1817,-0.1764,-0.1796,-0.1791,-0.1788,-0.1785,0,-0.0944,-0.0949,-0.0975,-0.1003,-0.1044,-0.1108,-0.1196,-0.1272,-0.1458,-0.1599,-0.1795,-0.1884,-0.1979,-0.1922,-0.1919,-0.1903,-0.1917,-0.1928,-0.1942,-0.1603,-0.1567,-0.1507,-0.1637,-0.1751,-0.1754,-0.1757,-0.1758,-0.176,-0.0919,-0.0915,-0.0935,-0.0958,-0.1007,-0.1076,-0.11,-0.1238,-0.1369,-0.1551,-0.1695,-0.1772,-0.1756,-0.1689,-0.1685,-0.1579,-0.1657,-0.1511,-0.1564,-0.1611,-0.1439,-0.1474,-0.15,-0.1502,-0.1503,-0.1505,-0.1506,0,-0.0895,-0.0883,-0.0897,-0.0921,-0.0952,-0.0998,-0.1101,-0.1135,-0.1247,-0.1401,-0.1505,-0.1507,-0.1413,-0.1411,-0.1315,-0.1254,-0.1244,-0.125,-0.1277,-0.1262,-0.1366,-0.1214,-0.1088,-0.1088,-0.1088,-0.1088,-0.1088,-0.1088,-0.0879,-0.0859,-0.0854,-0.0854,-0.0876,-0.0888,-0.092,-0.0988,-0.1062,-0.1152,-0.1187,-0.1232,-0.1232,-0.1294,-0.1196,-0.1134,-0.1144,-0.1088,-0.1172,-0.1255,-0.1285,-0.1313,-0.1171,-0.1038,-0.1038,-0.0983,-0.0983,-0.0983]},{"header":{"parameterUnit":"m.s-1","parameterCategory":2,"la1":30.2991,"la2":30.254,"lo1":-89.0895,"lo2":-89.0444,"dy":0.0017,"dx":0.0017,"nx":28,"ny":28,"refTime":"2025-09-13T03:00:00:Z","depth":"0","parameterNumber":3,"parameterNumberName":"V-component_of_CURRENTS"},"data":[0,0,0,0,0,0,0,0,0,0,0,0,0,0,0,0,0,0,0,0,0,0,0,0,0,0,0,0,0,0,0,0,0,0,0,0,0,0,0,0,0,0,0,0,0,0,0,0,0,0,0,0,0,0,0,0,0,0,-0.0199,-0.0198,0,-0.0113,-0.0112,-0.011,-0.0064,-0.0064,-0.0064,-0.0065,0.004,0.0042,0.0045,0,0,0,0,0,0,0,0,0,0,0,0,0,-0.0226,-0.0226,-0.0199,-0.0198,-0.0197,-0.0113,-0.0112,-0.011,-0.0064,-0.0064,-0.0064,-0.0065,0.0039,0.0042,0.0045,0,0,0,0,0,0,0,0,0,0,0,0,0,-0.0182,-0.0226,-0.0199,-0.0166,-0.0162,-0.0113,-0.0112,-0.011,-0.0064,-0.0064,-0.0064,-0.0065,0.0037,0.0042,0.0046,0.0076,0,0,0.0059,0.0061,0,0,0,0,0,0,0,0,-0.0185,-0.0181,-0.0171,-0.0168,-0.0164,-0.0102,-0.0083,-0.0047,-0.0064,-0.0099,-0.0065,-0.0065,-0.0007,0.0001,0.002,0.0081,0.0086,0.006,0.0062,0.0064,0.0065,0,0,0,0,0,0,0,-0.0188,-0.0184,-0.0162,-0.0171,-0.0166,-0.0122,-0.0117,-0.0076,-0.0051,-0.0096,-0.0093,-0.0087,-0.0005,0.0016,0.0023,0.0087,0.0059,0.0063,0.0066,0.0068,0.0185,0.0186,0,0,0,0,0,0,-0.0209,-0.0188,-0.0165,-0.016,-0.0178,-0.0122,-0.0116,-0.0119,-0.0051,-0.0042,-0.0087,-0.0085,0.0009,0.0018,0.0027,0.0053,0.0064,0.0068,0.0071,0.0185,0.0185,0.0186,0,0,0,0,0,0,-0.021,-0.0208,-0.0168,-0.0173,-0.0165,-0.0123,-0.0126,-0.0118,-0.0096,-0.0046,-0.0035,-0.0074,0.0009,0.0021,0.0065,0.0058,0.007,0.0074,0.0184,0.0185,0.0186,0.0115,0,0,0,0,0,0,-0.0211,-0.0209,-0.0214,-0.0175,-0.0166,-0.0149,-0.0126,-0.0116,-0.0093,-0.009,-0.0031,-0.0022,0.001,0.0059,0.007,0.0064,0.0077,0.0183,0.0184,0.0185,0.0116,0.0113,0.011,0,0,0,0,0,-0.0213,-0.0229,-0.0215,-0.0212,-0.0176,-0.015,-0.0141,-0.0108,-0.0093,-0.0088,-0.0043,-0.0024,0.0072,0.0063,0.0075,0.0071,0.0183,0.0184,0.0185,0.0118,0.0114,0.011,0,0,0,0,0,0,-0.0246,-0.0224,-0.0209,-0.0218,-0.0188,-0.0143,-0.0136,-0.011,-0.0068,-0.0063,-0.0013,-0.0,0.0036,0.0069,0.0057,0.011,0.013,0.0134,0.0074,0.0071,0.0068,0.0038,0.0081,0,0,0,0,0,-0.0255,-0.026,-0.0227,-0.0232,-0.0221,-0.0176,-0.0159,-0.0136,-0.0097,-0.0079,-0.0036,0.0011,0.0052,0.0072,0.0116,0.0146,0.0181,0.0152,0.0149,0.0146,0.0133,0.0187,0.0187,0.019,0.019,0.019,0,0,-0.027,-0.0258,-0.026,-0.0239,-0.0212,-0.0208,-0.0166,-0.0147,-0.0142,-0.0073,-0.005,0.0004,0.006,0.0092,0.0111,0.0117,0.0166,0.0147,0.0144,0.0132,0.0188,0.0187,0.0187,0.0191,0.019,0.019,0,0,-0.0303,-0.029,-0.0303,-0.0285,-0.0254,-0.0229,-0.0227,-0.018,-0.0159,-0.0122,-0.0075,-0.0023,0.0038,0.0076,0.0102,0.0111,0.015,0.0124,0.0079,0.0132,0.0131,0.0131,0.0179,0.0183,0.0118,0.0118,0.0118,0,-0.0319,-0.0336,-0.0301,-0.0307,-0.0304,-0.0245,-0.0259,-0.0227,-0.0171,-0.0159,-0.0127,-0.0028,0.0029,0.006,0.0067,0.0102,0.0134,0.0084,0.0125,0.0126,0.0127,0.0176,0.0182,0.0115,0.0115,0.0115,0.0116,0,-0.036,-0.0371,-0.0377,-0.0371,-0.036,-0.0361,-0.0322,-0.0303,-0.0264,-0.0228,-0.0179,-0.0092,-0.0039,-0.0006,0.0036,0.0067,0.0089,0.0116,0.0126,0.0122,0.0174,0.0182,0.011,0.0111,0.0112,0.0113,0,0,-0.0397,-0.0408,-0.0407,-0.0427,-0.0398,-0.04,-0.0393,-0.0375,-0.0379,-0.0301,-0.0293,-0.0194,-0.0142,-0.0107,-0.0041,0.0012,0.0066,0.0059,0.0064,0.0091,0.0175,0.0217,0.023,0.0095,0.0095,0.0096,0.0209,0,-0.0438,-0.0483,-0.047,-0.0511,-0.0532,-0.0493,-0.0502,-0.0474,-0.043,-0.0403,-0.0306,-0.0264,-0.0184,-0.0154,-0.0088,0.0031,0.0082,0.0033,0.0189,0.0193,0.0218,0.0239,0.0269,0.0374,0.0216,0.0218,0.0219,0,-0.0477,-0.0508,-0.0563,-0.0602,-0.0608,-0.0622,-0.0632,-0.0627,-0.0572,-0.0534,-0.0468,-0.0389,-0.0292,-0.0223,-0.004,-0.0078,0.0035,0.013,0.0137,0.0202,0.0249,0.0355,0.0394,0.053,0.0231,0.023,0.0229,0,-0.0528,-0.0571,-0.0628,-0.0637,-0.0665,-0.0687,-0.0696,-0.0667,-0.0674,-0.0611,-0.0596,-0.0476,-0.0403,-0.0254,-0.0036,-0.0045,0.0171,0.0185,0.0323,0.0328,0.0398,0.0406,0.0572,0.0299,0.0299,0.0298,0.0298,0,-0.0578,-0.0619,-0.0661,-0.0691,-0.0764,-0.0755,-0.0808,-0.0793,-0.0773,-0.0788,-0.0667,-0.0626,-0.0405,-0.0249,-0.0069,0.0165,0.0151,0.0317,0.0361,0.0376,0.0381,0.0537,0.0583,0.0303,0.0302,0.0301,0.03,0,-0.0614,-0.0642,-0.0712,-0.0767,-0.079,-0.0837,-0.0886,-0.092,-0.0887,-0.0897,-0.0882,-0.0726,-0.0508,-0.0277,-0.0008,0.0128,0.0433,0.0425,0.0427,0.0469,0.0691,0.073,0.092,0.1004,0.0569,0.0571,0.0572,0,-0.0636,-0.0678,-0.0766,-0.0817,-0.0845,-0.0912,-0.0964,-0.0972,-0.1001,-0.095,-0.0955,-0.0759,-0.0581,-0.0165,0.0117,0.0429,0.0541,0.0604,0.0592,0.0713,0.079,0.081,0.0868,0.0664,0.0666,0.0667,0.0669,0,-0.0675,-0.0706,-0.0762,-0.0873,-0.0947,-0.1033,-0.1098,-0.1144,-0.1152,-0.1132,-0.104,-0.0884,-0.0474,-0.0083,0.0315,0.0495,0.0693,0.0645,0.0782,0.0883,0.0907,0.1006,0.0574,0.0684,0.0682,0.0681,0.0681,0.068,-0.0691,-0.0742,-0.0824,-0.0929,-0.102,-0.1132,-0.1201,-0.1256,-0.1293,-0.1229,-0.1059,-0.0754,-0.0247,0.0342,0.0528,0.0886,0.0847,0.0991,0.1031,0.1042,0.1118,0.0711,0.0861,0.086,0.086,0.086,0.0859,0,-0.0716,-0.078,-0.0878,-0.1012,-0.1123,-0.1156,-0.1278,-0.1338,-0.1381,-0.1172,-0.0996,-0.0348,0.0155,0.0595,0.1083,0.1265,0.1296,0.1356,0.14,0.1443,0.1106,0.1105,0.1301,0.1301,0.1301,0.1301,0.1301,0.13,-0.0734,-0.0829,-0.0891,-0.1076,-0.1162,-0.1306,-0.1371,-0.1437,-0.1327,-0.0981,-0.0557,-0.0166,0.0439,0.1156,0.1586,0.1625,0.1778,0.1756,0.1842,0.1612,0.1581,0.1551,0.1563,0.1852,0.1853,0.2172,0.2175,0.2177]}],[{"header":{"parameterUnit":"m.s-1","parameterCategory":2,"la1":30.2991,"la2":30.254,"lo1":-89.0895,"lo2":-89.0444,"dy":0.0017,"dx":0.0017,"nx":28,"ny":28,"refTime":"2025-09-13T03:00:00:Z","depth":"2","parameterNumber":2,"parameterNumberName":"U-component_of_CURRENTS"},"data":[0,0,0,0,0,0,0,0,0,0,0,0,0,0,0,0,0,0,0,0,0,0,0,0,0,0,0,0,0,0,0,0,0,0,0,0,0,0,0,0,0,0,0,0,0,0,0,0,0,0,0,0,0,0,0,0,0,0,-0.2371,-0.2371,0,-0.2412,-0.2413,-0.2413,-0.2313,-0.2311,-0.2308,-0.2305,-0.2232,-0.2233,-0.2234,0,0,0,0,0,0,0,0,0,0,0,0,0,-0.2185,-0.2188,-0.2371,-0.2371,-0.2372,-0.2412,-0.2413,-0.2413,-0.2314,-0.2311,-0.2307,-0.2304,-0.2232,-0.2233,-0.2234,0,0,0,0,0,0,0,0,0,0,0,0,0,-0.2246,-0.2189,-0.237,-0.2331,-0.2328,-0.2412,-0.2413,-0.2413,-0.2315,-0.231,-0.2306,-0.2302,-0.2232,-0.2233,-0.2234,-0.2324,0,0,-0.2237,-0.2237,0,0,0,0,0,0,0,0,-0.2243,-0.2253,-0.2336,-0.2334,-0.2331,-0.2357,-0.2321,-0.2379,-0.2316,-0.2316,-0.2305,-0.23,-0.2269,-0.2267,-0.228,-0.2321,-0.2318,-0.2237,-0.2238,-0.2238,-0.2238,0,0,0,0,0,0,0,-0.2239,-0.225,-0.2383,-0.2337,-0.2334,-0.2304,-0.2308,-0.2331,-0.231,-0.2315,-0.2309,-0.2321,-0.2266,-0.228,-0.2277,-0.2317,-0.2237,-0.2238,-0.2239,-0.2239,-0.2297,-0.2297,0,0,0,0,0,0,-0.2248,-0.2247,-0.2382,-0.2385,-0.228,-0.2311,-0.2315,-0.2349,-0.2312,-0.2305,-0.2325,-0.2317,-0.228,-0.2276,-0.2274,-0.2251,-0.2238,-0.2239,-0.224,-0.2296,-0.2297,-0.2298,0,0,0,0,0,0,-0.2245,-0.2261,-0.238,-0.2318,-0.2331,-0.2319,-0.2358,-0.2353,-0.2322,-0.2322,-0.231,-0.2294,-0.2276,-0.2273,-0.2265,-0.2251,-0.224,-0.224,-0.2295,-0.2296,-0.2297,-0.2286,0,0,0,0,0,0,-0.2239,-0.226,-0.2268,-0.232,-0.2335,-0.2416,-0.2363,-0.2357,-0.234,-0.2328,-0.2294,-0.2285,-0.2273,-0.2264,-0.2266,-0.2253,-0.2241,-0.2293,-0.2295,-0.2297,-0.2285,-0.2287,-0.2288,0,0,0,0,0,-0.2233,-0.2272,-0.2269,-0.2284,-0.2355,-0.2418,-0.2423,-0.2396,-0.2343,-0.2347,-0.2311,-0.2283,-0.2275,-0.2266,-0.2268,-0.2255,-0.2293,-0.2295,-0.2297,-0.2285,-0.2287,-0.2288,0,0,0,0,0,0,-0.219,-0.2268,-0.2265,-0.2322,-0.2359,-0.2402,-0.2402,-0.2387,-0.2367,-0.2333,-0.2307,-0.2299,-0.2286,-0.2287,-0.2277,-0.2279,-0.2276,-0.2279,-0.2266,-0.2268,-0.227,-0.2279,-0.2242,0,0,0,0,0,-0.2193,-0.2236,-0.2302,-0.2339,-0.2359,-0.2373,-0.2384,-0.2376,-0.2379,-0.2362,-0.2336,-0.2313,-0.2313,-0.2297,-0.2304,-0.2316,-0.2322,-0.2308,-0.2309,-0.231,-0.2322,-0.23,-0.23,-0.2305,-0.2305,-0.2305,0,0,-0.2184,-0.2232,-0.2252,-0.2331,-0.2349,-0.2404,-0.2366,-0.2389,-0.2411,-0.2363,-0.235,-0.2323,-0.232,-0.2322,-0.2315,-0.2307,-0.2321,-0.2313,-0.2313,-0.2325,-0.2302,-0.2301,-0.23,-0.2306,-0.2306,-0.2305,0,0,-0.2214,-0.2233,-0.2286,-0.2327,-0.2373,-0.2397,-0.2398,-0.2428,-0.2406,-0.2419,-0.2377,-0.2338,-0.2346,-0.2329,-0.2326,-0.2349,-0.2335,-0.2343,-0.2348,-0.2326,-0.2325,-0.2324,-0.2363,-0.2366,-0.2336,-0.2336,-0.2336,0,-0.2189,-0.2281,-0.2306,-0.2372,-0.2399,-0.2393,-0.2448,-0.2458,-0.2469,-0.2446,-0.2409,-0.2374,-0.2353,-0.2349,-0.2345,-0.2348,-0.2355,-0.2334,-0.2325,-0.2324,-0.2323,-0.2363,-0.2366,-0.2335,-0.2335,-0.2335,-0.2335,0,-0.2281,-0.2335,-0.2365,-0.2449,-0.2479,-0.2522,-0.2553,-0.2545,-0.2502,-0.2493,-0.2452,-0.2421,-0.2388,-0.2373,-0.2365,-0.2347,-0.2364,-0.2331,-0.2313,-0.2321,-0.2365,-0.2368,-0.2335,-0.2335,-0.2335,-0.2335,0,0,-0.2266,-0.2405,-0.2406,-0.2449,-0.2517,-0.2553,-0.258,-0.2603,-0.2587,-0.2552,-0.2529,-0.249,-0.2425,-0.2421,-0.2385,-0.2358,-0.2356,-0.2338,-0.2337,-0.2367,-0.235,-0.2198,-0.2188,-0.2306,-0.2305,-0.2305,-0.2395,0,-0.2317,-0.2454,-0.25,-0.2584,-0.2649,-0.2646,-0.2672,-0.2671,-0.2641,-0.2617,-0.2548,-0.2513,-0.2462,-0.242,-0.2389,-0.2367,-0.2358,-0.2338,-0.2349,-0.2351,-0.2202,-0.2182,-0.2009,-0.2057,-0.2398,-0.2398,-0.2398,0,-0.2385,-0.2469,-0.2577,-0.2651,-0.2669,-0.2699,-0.2698,-0.2722,-0.2691,-0.2656,-0.2595,-0.2548,-0.2509,-0.2453,-0.2419,-0.2405,-0.2383,-0.2364,-0.2366,-0.2227,-0.2201,-0.2099,-0.2049,-0.2403,-0.2403,-0.2403,-0.2402,0,-0.2374,-0.2503,-0.258,-0.2615,-0.2708,-0.2704,-0.2717,-0.2703,-0.2698,-0.2664,-0.2641,-0.2589,-0.2551,-0.251,-0.2441,-0.2435,-0.241,-0.24,-0.2261,-0.2255,-0.2111,-0.2088,-0.238,-0.238,-0.238,-0.238,-0.238,0,-0.2423,-0.2472,-0.2571,-0.2617,-0.2649,-0.2696,-0.269,-0.2693,-0.2684,-0.2658,-0.2638,-0.2588,-0.2552,-0.2517,-0.2474,-0.2361,-0.2431,-0.2264,-0.2244,-0.2105,-0.2082,-0.2379,-0.2377,-0.2383,-0.2383,-0.2382,-0.2381,0,-0.2405,-0.2486,-0.2565,-0.2647,-0.2654,-0.2661,-0.2673,-0.2664,-0.267,-0.2644,-0.263,-0.26,-0.2508,-0.2483,-0.2427,-0.2378,-0.2306,-0.2253,-0.2115,-0.2072,-0.2186,-0.2184,-0.2142,-0.2137,-0.2133,-0.2129,-0.2126,0,-0.2418,-0.2469,-0.2554,-0.2562,-0.2586,-0.26,-0.2595,-0.2629,-0.2615,-0.2609,-0.2582,-0.2518,-0.2372,-0.2264,-0.2167,-0.2083,-0.2164,-0.1916,-0.184,-0.2165,-0.2152,-0.2156,-0.216,-0.1696,-0.169,-0.1685,-0.1681,0,-0.2411,-0.2427,-0.2472,-0.2506,-0.2507,-0.2528,-0.2521,-0.2497,-0.2517,-0.2445,-0.2312,-0.2198,-0.211,-0.1877,-0.181,-0.1745,-0.1909,-0.1802,-0.2165,-0.1745,-0.1739,-0.1728,-0.1747,-0.1635,-0.1639,-0.1643,-0.1645,-0.1647,-0.2341,-0.2357,-0.2395,-0.2402,-0.2419,-0.239,-0.23,-0.2272,-0.2157,-0.2005,-0.2031,-0.1805,-0.1804,-0.1519,-0.1435,-0.1413,-0.154,-0.151,-0.153,-0.1554,-0.1446,-0.1428,-0.1252,-0.1254,-0.1256,-0.1258,-0.126,0,-0.2237,-0.2267,-0.2282,-0.2278,-0.2218,-0.2287,-0.2197,-0.2037,-0.1777,-0.173,-0.1544,-0.132,-0.1152,-0.1173,-0.1049,-0.1032,-0.1068,-0.1003,-0.1057,-0.1101,-0.1141,-0.1016,-0.0707,-0.0706,-0.0704,-0.0703,0,0,-0.2179,-0.2153,-0.2168,-0.2052,-0.2036,-0.1872,-0.1753,-0.1539,-0.1409,-0.1134,-0.1022,-0.1079,-0.1107,-0.0903,-0.0857,-0.0759,-0.0928,-0.0719,-0.1156,-0.1261,-0.1299,-0.1417,-0.127,0,0,0,0,0]},{"header":{"parameterUnit":"m.s-1","parameterCategory":2,"la1":30.2991,"la2":30.254,"lo1":-89.0895,"lo2":-89.0444,"dy":0.0017,"dx":0.0017,"nx":28,"ny":28,"refTime":"2025-09-13T03:00:00:Z","depth":"2","parameterNumber":3,"parameterNumberName":"V-component_of_CURRENTS"},"data":[0,0,0,0,0,0,0,0,0,0,0,0,0,0,0,0,0,0,0,0,0,0,0,0,0,0,0,0,0,0,0,0,0,0,0,0,0,0,0,0,0,0,0,0,0,0,0,0,0,0,0,0,0,0,0,0,0,0,-0.0045,-0.0044,0,0.0035,0.0036,0.0036,0.006,0.006,0.006,0.0059,0.0099,0.0101,0.0102,0,0,0,0,0,0,0,0,0,0,0,0,0,-0.0152,-0.015,-0.0045,-0.0044,-0.0043,0.0035,0.0036,0.0037,0.0061,0.006,0.006,0.0059,0.0099,0.01,0.0102,0,0,0,0,0,0,0,0,0,0,0,0,0,-0.0093,-0.015,-0.0045,-0.0022,-0.0019,0.0034,0.0036,0.0037,0.0061,0.006,0.006,0.0059,0.0098,0.01,0.0102,0.0126,0,0,0.0109,0.011,0,0,0,0,0,0,0,0,-0.0096,-0.0089,-0.0026,-0.0023,-0.002,0.0037,0.0013,0.0065,0.0061,0.003,0.0059,0.0059,0.0075,0.0079,0.0096,0.0128,0.013,0.0109,0.011,0.0111,0.0112,0,0,0,0,0,0,0,-0.01,-0.0092,-0.0014,-0.0025,-0.0021,-0.0006,0.0001,0.0023,0.0054,0.0033,0.0035,0.0044,0.0077,0.0094,0.0097,0.0131,0.0109,0.0111,0.0112,0.0113,0.0162,0.0162,0,0,0,0,0,0,-0.011,-0.0096,-0.0016,-0.0012,-0.006,-0.0004,0.0004,0.0019,0.0055,0.006,0.0045,0.0045,0.009,0.0094,0.0098,0.0111,0.0111,0.0113,0.0114,0.0162,0.0162,0.0162,0,0,0,0,0,0,-0.0112,-0.0103,-0.002,-0.0052,-0.004,-0.0002,0.0015,0.0021,0.0019,0.0064,0.0069,0.0034,0.009,0.0095,0.0104,0.0113,0.0114,0.0116,0.0162,0.0162,0.0162,0.0147,0,0,0,0,0,0,-0.0116,-0.0104,-0.011,-0.0052,-0.0039,0.0001,0.0016,0.0023,0.0027,0.0028,0.0057,0.0061,0.009,0.0101,0.0106,0.0116,0.0118,0.0162,0.0162,0.0162,0.0148,0.0147,0.0146,0,0,0,0,0,-0.012,-0.0124,-0.0111,-0.0102,-0.0044,0.0,0.0008,0.0034,0.0027,0.0028,0.0044,0.0059,0.0106,0.0103,0.0109,0.0119,0.0162,0.0162,0.0162,0.0148,0.0147,0.0146,0,0,0,0,0,0,-0.0179,-0.012,-0.0105,-0.0093,-0.0055,0.0004,0.0001,0.0019,0.0034,0.0022,0.0058,0.0065,0.0077,0.0095,0.0091,0.0133,0.0137,0.0138,0.0124,0.0123,0.0123,0.0136,0.0119,0,0,0,0,0,-0.0192,-0.0181,-0.0119,-0.0115,-0.0099,-0.0055,-0.0041,-0.0021,0.0008,0.0013,0.0035,0.0057,0.0087,0.0099,0.0123,0.0143,0.0176,0.0154,0.0153,0.0152,0.0167,0.0222,0.0228,0.0162,0.0162,0.0162,0,0,-0.0217,-0.0183,-0.0179,-0.0127,-0.0101,-0.0071,-0.0049,-0.0034,-0.0008,0.0014,0.0031,0.0048,0.0089,0.0116,0.0124,0.013,0.0185,0.0152,0.0151,0.0167,0.0223,0.023,0.0236,0.0162,0.0162,0.0162,0,0,-0.0251,-0.0229,-0.0226,-0.0191,-0.015,-0.0109,-0.0111,-0.0062,-0.0043,-0.002,0.0006,0.0033,0.0061,0.0112,0.0139,0.0147,0.0174,0.0138,0.0153,0.0206,0.0213,0.0219,0.0258,0.0268,0.0144,0.0144,0.0144,0,-0.0288,-0.0263,-0.0221,-0.0202,-0.0176,-0.013,-0.0113,-0.0076,-0.0032,-0.001,-0.0024,0.0046,0.0073,0.0142,0.0146,0.0149,0.017,0.0154,0.0207,0.0214,0.022,0.0259,0.027,0.0143,0.0143,0.0143,0.0143,0,-0.0301,-0.0286,-0.0284,-0.0235,-0.0202,-0.0185,-0.0116,-0.0095,-0.0077,-0.0032,0.0012,0.0055,0.01,0.0114,0.0134,0.0197,0.0192,0.0194,0.0211,0.0226,0.0266,0.0278,0.0142,0.0142,0.0143,0.0143,0,0,-0.0368,-0.0306,-0.0308,-0.0289,-0.0218,-0.0192,-0.0145,-0.0077,-0.0054,-0.0008,0.0028,0.0099,0.0113,0.0144,0.0174,0.023,0.029,0.0226,0.0229,0.0268,0.0392,0.0346,0.0355,0.0292,0.0294,0.0295,0.0397,0,-0.0394,-0.0373,-0.0323,-0.0299,-0.0279,-0.021,-0.0166,-0.0102,-0.0055,-0.0012,0.0063,0.0093,0.013,0.0128,0.02,0.0256,0.0321,0.0262,0.0369,0.0373,0.0334,0.0368,0.0346,0.043,0.0409,0.0411,0.0412,0,-0.0419,-0.0398,-0.0387,-0.0323,-0.0309,-0.029,-0.0217,-0.0171,-0.0078,-0.0048,0.0019,0.0062,0.0155,0.0162,0.0316,0.0266,0.0335,0.0388,0.0393,0.0369,0.035,0.0414,0.0453,0.0432,0.043,0.0429,0.0428,0,-0.0486,-0.0438,-0.0435,-0.0414,-0.0338,-0.0328,-0.029,-0.0201,-0.0169,-0.0089,-0.0079,0.0051,0.0078,0.0203,0.032,0.0309,0.0477,0.0475,0.0515,0.0512,0.0527,0.0521,0.06,0.06,0.06,0.0599,0.0599,0,-0.0524,-0.0524,-0.048,-0.0479,-0.0476,-0.0401,-0.0389,-0.0331,-0.0264,-0.023,-0.0125,-0.0082,0.0084,0.0198,0.032,0.0451,0.0484,0.0533,0.0543,0.0517,0.0509,0.0537,0.0528,0.0603,0.0602,0.0602,0.0601,0,-0.0602,-0.0571,-0.057,-0.0522,-0.0515,-0.0523,-0.0477,-0.0458,-0.0394,-0.0354,-0.0343,-0.019,-0.0056,0.012,0.0316,0.0421,0.0565,0.0607,0.0555,0.0556,0.0565,0.0555,0.0661,0.066,0.066,0.0659,0.0659,0,-0.0638,-0.0651,-0.0631,-0.0645,-0.0639,-0.0636,-0.0627,-0.0548,-0.0521,-0.0413,-0.0397,-0.0272,-0.0165,0.0104,0.0309,0.0517,0.0545,0.061,0.0594,0.0577,0.0576,0.0566,0.0557,0.0613,0.0613,0.0612,0.0612,0,-0.0708,-0.0715,-0.0712,-0.0747,-0.0761,-0.0751,-0.0734,-0.0718,-0.0615,-0.0571,-0.0471,-0.0387,-0.0155,0.0068,0.0312,0.044,0.057,0.06,0.0631,0.0577,0.0534,0.0532,0.0524,0.0607,0.0607,0.0608,0.0608,0.0608,-0.0766,-0.0793,-0.0804,-0.0834,-0.0853,-0.0849,-0.0823,-0.0779,-0.0725,-0.062,-0.0537,-0.0389,-0.0183,0.015,0.0336,0.0518,0.0521,0.0592,0.0594,0.0597,0.0549,0.0505,0.0563,0.0564,0.0564,0.0564,0.0564,0,-0.0813,-0.0847,-0.0884,-0.0899,-0.0915,-0.0921,-0.0872,-0.0814,-0.0734,-0.0647,-0.0552,-0.0326,-0.0097,0.012,0.0394,0.0543,0.0563,0.0568,0.0577,0.0581,0.0584,0.0536,0.0548,0.0548,0.0548,0.0549,0,0,-0.0838,-0.0883,-0.0897,-0.094,-0.0961,-0.0947,-0.0907,-0.0825,-0.0725,-0.0616,-0.0504,-0.0366,-0.0092,0.0097,0.0288,0.0429,0.0466,0.044,0.0439,0.0431,0.0432,0.0583,0.051,0,0,0,0,0]}],[{"header":{"parameterUnit":"m.s-1","parameterCategory":2,"la1":30.2991,"la2":30.254,"lo1":-89.0895,"lo2":-89.0444,"dy":0.0017,"dx":0.0017,"nx":28,"ny":28,"refTime":"2025-09-13T03:00:00:Z","depth":"4","parameterNumber":2,"parameterNumberName":"U-component_of_CURRENTS"},"data":[0,0,0,0,0,0,0,0,0,0,0,0,0,0,0,0,0,0,0,0,0,0,0,0,0,0,0,0,0,0,0,0,0,0,0,0,0,0,0,0,0,0,0,0,0,0,0,0,0,0,0,0,0,0,0,0,0,0,-0.1044,-0.1044,0,-0.1083,-0.1083,-0.1084,-0.111,-0.111,-0.111,-0.111,-0.1159,-0.116,-0.1161,0,0,0,0,0,0,0,0,0,0,0,0,0,-0.0967,-0.0969,-0.1044,-0.1044,-0.1045,-0.1083,-0.1083,-0.1084,-0.111,-0.111,-0.111,-0.111,-0.1158,-0.116,-0.1161,0,0,0,0,0,0,0,0,0,0,0,0,0,-0.1004,-0.0969,-0.1044,-0.1061,-0.1063,-0.1083,-0.1083,-0.1084,-0.111,-0.111,-0.111,-0.111,-0.1158,-0.1159,-0.1161,-0.1169,0,0,-0.1167,-0.1167,0,0,0,0,0,0,0,0,-0.1002,-0.1007,-0.1058,-0.106,-0.1062,-0.1091,-0.1074,-0.1113,-0.111,-0.1093,-0.111,-0.111,-0.1136,-0.114,-0.1148,-0.1171,-0.1173,-0.1167,-0.1168,-0.1169,-0.1169,0,0,0,0,0,0,0,-0.0999,-0.1005,-0.106,-0.1059,-0.1061,-0.1059,-0.1065,-0.1082,-0.1114,-0.1094,-0.1096,-0.1099,-0.1138,-0.1146,-0.1149,-0.1174,-0.1167,-0.1168,-0.117,-0.117,-0.1263,-0.1264,0,0,0,0,0,0,-0.0994,-0.1003,-0.1059,-0.1061,-0.1031,-0.1061,-0.1067,-0.1082,-0.1114,-0.1118,-0.1099,-0.11,-0.1143,-0.1147,-0.1151,-0.1235,-0.1169,-0.117,-0.1171,-0.1261,-0.1263,-0.1264,0,0,0,0,0,0,-0.0993,-0.0999,-0.1057,-0.1031,-0.1038,-0.1062,-0.1079,-0.1083,-0.1107,-0.1117,-0.1122,-0.1121,-0.1143,-0.1148,-0.1185,-0.1235,-0.1171,-0.1173,-0.126,-0.1262,-0.1264,-0.1357,0,0,0,0,0,0,-0.0991,-0.0999,-0.1016,-0.1032,-0.104,-0.1081,-0.1079,-0.1083,-0.1108,-0.111,-0.1137,-0.1141,-0.1144,-0.1183,-0.1187,-0.1236,-0.1174,-0.1258,-0.1261,-0.1263,-0.1353,-0.1362,-0.1371,0,0,0,0,0,-0.0988,-0.1006,-0.1017,-0.1024,-0.1061,-0.1082,-0.1086,-0.1103,-0.1109,-0.1125,-0.1146,-0.1141,-0.1202,-0.1185,-0.119,-0.1241,-0.1257,-0.126,-0.1263,-0.1348,-0.136,-0.1371,0,0,0,0,0,0,-0.0979,-0.101,-0.1023,-0.105,-0.1071,-0.1086,-0.1099,-0.1113,-0.1142,-0.1149,-0.1158,-0.1163,-0.1214,-0.1208,-0.1189,-0.1272,-0.1229,-0.1233,-0.1292,-0.1304,-0.1313,-0.1285,-0.1176,0,0,0,0,0,-0.0986,-0.101,-0.1035,-0.1057,-0.1068,-0.1088,-0.1101,-0.1116,-0.1138,-0.1152,-0.1176,-0.1199,-0.1228,-0.125,-0.1267,-0.1313,-0.1279,-0.1347,-0.1356,-0.1364,-0.1343,-0.1376,-0.1387,-0.1275,-0.1275,-0.1275,0,0,-0.099,-0.1007,-0.1023,-0.1057,-0.1072,-0.11,-0.1097,-0.1123,-0.1156,-0.1152,-0.1211,-0.1231,-0.1244,-0.1299,-0.1322,-0.1305,-0.1371,-0.1368,-0.1375,-0.1349,-0.1381,-0.1392,-0.1401,-0.1277,-0.1276,-0.1276,0,0,-0.0998,-0.1024,-0.1045,-0.107,-0.11,-0.1113,-0.1126,-0.1161,-0.1188,-0.1233,-0.125,-0.1292,-0.1333,-0.1363,-0.1378,-0.1442,-0.1414,-0.1463,-0.1498,-0.1532,-0.1541,-0.1549,-0.1487,-0.1489,-0.1474,-0.1475,-0.1475,0,-0.1001,-0.1032,-0.1053,-0.1082,-0.1102,-0.1123,-0.1151,-0.1185,-0.1234,-0.1267,-0.1258,-0.1331,-0.1356,-0.142,-0.1455,-0.1464,-0.1449,-0.1461,-0.1545,-0.1552,-0.1559,-0.1493,-0.1494,-0.148,-0.1479,-0.1478,-0.1478,0,-0.1024,-0.1058,-0.107,-0.1116,-0.1143,-0.1167,-0.1212,-0.1256,-0.1284,-0.1321,-0.1384,-0.1404,-0.1443,-0.1478,-0.149,-0.1566,-0.1525,-0.1551,-0.1518,-0.1576,-0.1502,-0.1501,-0.1487,-0.1485,-0.1483,-0.1482,0,0,-0.1011,-0.1073,-0.1082,-0.1101,-0.1163,-0.1177,-0.1248,-0.131,-0.1337,-0.1401,-0.1449,-0.1513,-0.1524,-0.1539,-0.1566,-0.1604,-0.1644,-0.161,-0.161,-0.1546,-0.1659,-0.1595,-0.1586,-0.1709,-0.171,-0.1711,-0.1576,0,-0.102,-0.1066,-0.1104,-0.1149,-0.1171,-0.1225,-0.1289,-0.1357,-0.138,-0.144,-0.1495,-0.1553,-0.1549,-0.1582,-0.1616,-0.1661,-0.1651,-0.1672,-0.1611,-0.1606,-0.1546,-0.1589,-0.1715,-0.1575,-0.1575,-0.1575,-0.1574,0,-0.1031,-0.1057,-0.1104,-0.1161,-0.1178,-0.1222,-0.1284,-0.1348,-0.1449,-0.1474,-0.1525,-0.1566,-0.1653,-0.1635,-0.1667,-0.1692,-0.1664,-0.1665,-0.1661,-0.1564,-0.1543,-0.1513,-0.1572,-0.1572,-0.1572,-0.1572,-0.1572,0,-0.099,-0.1052,-0.1082,-0.1106,-0.1186,-0.123,-0.1292,-0.1375,-0.1424,-0.1519,-0.1535,-0.1613,-0.1655,-0.1676,-0.1679,-0.1699,-0.1677,-0.1702,-0.1575,-0.1566,-0.1619,-0.1613,-0.1673,-0.1674,-0.1674,-0.1674,-0.1675,0,-0.0971,-0.0996,-0.1068,-0.1086,-0.1133,-0.1217,-0.1264,-0.1332,-0.1428,-0.1473,-0.156,-0.1559,-0.1679,-0.1686,-0.1679,-0.1612,-0.1665,-0.156,-0.1546,-0.1654,-0.1654,-0.1615,-0.161,-0.1669,-0.167,-0.1671,-0.1672,0,-0.0922,-0.0972,-0.1009,-0.1092,-0.1117,-0.1168,-0.127,-0.129,-0.1391,-0.1439,-0.1498,-0.1569,-0.159,-0.1621,-0.1643,-0.1586,-0.1558,-0.1498,-0.1544,-0.1538,-0.1405,-0.1406,-0.1352,-0.1349,-0.1347,-0.1345,-0.1343,0,-0.0894,-0.0908,-0.0997,-0.1013,-0.1051,-0.1122,-0.1163,-0.1281,-0.1292,-0.1403,-0.1415,-0.1488,-0.1514,-0.144,-0.1508,-0.1465,-0.1449,-0.1384,-0.1452,-0.1389,-0.1381,-0.1386,-0.1391,-0.1339,-0.1338,-0.1338,-0.1337,0,-0.0829,-0.0879,-0.0908,-0.0946,-0.0981,-0.101,-0.1075,-0.1096,-0.1222,-0.1297,-0.1314,-0.1351,-0.1342,-0.138,-0.1353,-0.1325,-0.1436,-0.1358,-0.1364,-0.1427,-0.1372,-0.1368,-0.1376,-0.1328,-0.1329,-0.133,-0.1331,0,-0.0781,-0.079,-0.0832,-0.0856,-0.0883,-0.0892,-0.0952,-0.0978,-0.1038,-0.1181,-0.1171,-0.1238,-0.1317,-0.1299,-0.1277,-0.1269,-0.1261,-0.1218,-0.123,-0.124,-0.1281,-0.12,-0.108,0,0,0,0,0,-0.0722,-0.0714,-0.0724,-0.0746,-0.0767,-0.0792,-0.0868,-0.0933,-0.1049,-0.1032,-0.1117,-0.1119,-0.1143,-0.1172,-0.1143,-0.1228,-0.126,-0.1188,-0.1215,-0.128,-0.129,-0.1358,0,0,0,0,0,0,-0.068,-0.0689,-0.0691,-0.0628,-0.0627,-0.0643,-0.0704,-0.08,-0.0803,-0.0933,-0.0946,-0.1035,-0.1065,-0.1137,-0.111,-0.1122,-0.1115,-0.124,-0.1237,-0.1274,-0.1284,-0.1292,-0.1364,0,0,0,0,0]},{"header":{"parameterUnit":"m.s-1","parameterCategory":2,"la1":30.2991,"la2":30.254,"lo1":-89.0895,"lo2":-89.0444,"dy":0.0017,"dx":0.0017,"nx":28,"ny":28,"refTime":"2025-09-13T03:00:00:Z","depth":"4","parameterNumber":3,"parameterNumberName":"V-component_of_CURRENTS"},"data":[0,0,0,0,0,0,0,0,0,0,0,0,0,0,0,0,0,0,0,0,0,0,0,0,0,0,0,0,0,0,0,0,0,0,0,0,0,0,0,0,0,0,0,0,0,0,0,0,0,0,0,0,0,0,0,0,0,0,0.0088,0.0089,0,0.012,0.012,0.012,0.0152,0.0153,0.0153,0.0154,0.0195,0.0195,0.0196,0,0,0,0,0,0,0,0,0,0,0,0,0,0.0047,0.0047,0.0088,0.0089,0.009,0.012,0.012,0.012,0.0152,0.0153,0.0154,0.0154,0.0195,0.0195,0.0196,0,0,0,0,0,0,0,0,0,0,0,0,0,0.0069,0.0048,0.0088,0.011,0.0113,0.012,0.012,0.012,0.0152,0.0153,0.0154,0.0155,0.0194,0.0195,0.0196,0.0184,0,0,0.0199,0.0199,0,0,0,0,0,0,0,0,0.0067,0.007,0.0106,0.0109,0.0111,0.0134,0.0121,0.0143,0.0152,0.0135,0.0154,0.0155,0.0176,0.0178,0.018,0.0186,0.0187,0.0199,0.0199,0.02,0.02,0,0,0,0,0,0,0,0.0066,0.0069,0.0099,0.0107,0.011,0.0115,0.0119,0.0125,0.0149,0.0137,0.014,0.0145,0.0177,0.0179,0.0181,0.0188,0.0199,0.0199,0.02,0.02,0.0193,0.0192,0,0,0,0,0,0,0.0065,0.0067,0.0098,0.01,0.0093,0.0116,0.012,0.0125,0.0149,0.0154,0.0145,0.0147,0.0177,0.018,0.0183,0.0169,0.02,0.02,0.0201,0.0193,0.0193,0.0192,0,0,0,0,0,0,0.0064,0.0067,0.0097,0.0086,0.009,0.0116,0.0121,0.0125,0.0131,0.0155,0.016,0.0147,0.0178,0.0182,0.0184,0.0171,0.0201,0.0201,0.0194,0.0193,0.0192,0.0143,0,0,0,0,0,0,0.0062,0.0067,0.0066,0.0086,0.0091,0.0095,0.012,0.0125,0.0134,0.0137,0.0158,0.0163,0.0179,0.0183,0.0185,0.0173,0.0202,0.0195,0.0194,0.0193,0.0145,0.014,0.0136,0,0,0,0,0,0.0061,0.0057,0.0066,0.007,0.0091,0.0095,0.0097,0.0118,0.0133,0.0127,0.0144,0.0163,0.0177,0.0183,0.0186,0.0173,0.0196,0.0194,0.0193,0.0147,0.0141,0.0136,0,0,0,0,0,0,0.0042,0.0061,0.0071,0.0074,0.0082,0.0101,0.01,0.0114,0.0122,0.0126,0.0152,0.0157,0.0153,0.0169,0.0176,0.0168,0.019,0.0188,0.0154,0.0149,0.0144,0.0127,0.0203,0,0,0,0,0,0.0037,0.0037,0.0055,0.0056,0.006,0.0079,0.0083,0.0094,0.0107,0.0112,0.0129,0.0143,0.0147,0.0153,0.0159,0.0154,0.017,0.0149,0.0144,0.014,0.0128,0.016,0.0158,0.0187,0.0187,0.0187,0,0,0.0029,0.004,0.004,0.0051,0.0061,0.0047,0.0083,0.0085,0.0072,0.0114,0.0104,0.0125,0.0141,0.0134,0.0135,0.0149,0.0135,0.0138,0.0135,0.0124,0.0158,0.0156,0.0153,0.0186,0.0186,0.0186,0,0,0.0005,0.0024,0.001,0.001,0.0019,0.0026,0.0025,0.0041,0.0048,0.004,0.0068,0.0079,0.0086,0.0097,0.0103,0.0074,0.0106,0.0082,0.0047,0.0079,0.0077,0.0075,0.0069,0.0067,0.0083,0.0083,0.0083,0,-0.0006,-0.0021,0.0005,-0.0012,-0.0019,0.0013,-0.0013,-0.0007,0.0007,0.0015,0.0028,0.0043,0.0063,0.0055,0.0049,0.0062,0.0079,0.0068,0.0073,0.0072,0.0072,0.0065,0.0064,0.0081,0.0081,0.0081,0.0081,0,-0.0043,-0.0061,-0.0069,-0.0084,-0.0088,-0.0103,-0.0092,-0.0093,-0.0077,-0.0058,-0.0057,-0.0033,-0.0016,-0.0011,0.001,0.0013,0.0024,0.0061,0.0088,0.0066,0.006,0.006,0.0077,0.0078,0.0079,0.0079,0,0,-0.0057,-0.0091,-0.0095,-0.0122,-0.0129,-0.0137,-0.0159,-0.016,-0.0168,-0.0145,-0.0144,-0.0136,-0.0095,-0.0088,-0.0056,-0.0033,-0.0026,0.0012,0.0015,0.0004,0.0021,0.0079,0.0084,0.0026,0.0026,0.0027,0.0011,0,-0.0098,-0.0155,-0.0157,-0.0215,-0.0246,-0.0232,-0.0253,-0.0245,-0.0232,-0.0218,-0.0175,-0.0159,-0.0132,-0.0115,-0.0091,-0.0025,-0.0025,-0.0027,0.0045,0.0046,0.0101,0.0087,0.0027,0.0011,0.0011,0.0011,0.0011,0,-0.0136,-0.0173,-0.0238,-0.0288,-0.0296,-0.0323,-0.0345,-0.0358,-0.0324,-0.0304,-0.0275,-0.0222,-0.0182,-0.0151,-0.0088,-0.0083,-0.0048,-0.0012,-0.0011,0.0061,0.0105,0.0045,0.0011,0.0011,0.0011,0.0011,0.0011,0,-0.0164,-0.0229,-0.0286,-0.0303,-0.0348,-0.037,-0.0385,-0.0379,-0.0378,-0.0343,-0.0324,-0.0271,-0.0225,-0.0172,-0.0074,-0.0076,0.0001,0.0012,0.007,0.0073,0.0047,0.0049,0.0026,0.0026,0.0026,0.0026,0.0026,0,-0.0207,-0.0252,-0.0306,-0.0336,-0.0397,-0.0406,-0.045,-0.0452,-0.0432,-0.0415,-0.0359,-0.0333,-0.0219,-0.0144,-0.0086,0.0008,-0.0006,0.0053,0.0081,0.0022,0.0022,0.0045,0.0048,0.0025,0.0025,0.0025,0.0026,0,-0.0231,-0.0265,-0.0335,-0.0395,-0.0415,-0.0454,-0.0486,-0.0501,-0.0485,-0.0463,-0.0438,-0.0351,-0.0248,-0.015,-0.0044,0.0005,0.0081,0.0106,0.0018,0.0043,0.0115,0.0115,0.0143,0.0145,0.0147,0.0148,0.0149,0,-0.0251,-0.0289,-0.0374,-0.0412,-0.0442,-0.0497,-0.0521,-0.0523,-0.0522,-0.0475,-0.0447,-0.0342,-0.0273,-0.0105,-0.0,0.011,0.0126,0.0142,0.0128,0.0106,0.013,0.0128,0.0125,0.0152,0.0153,0.0153,0.0154,0,-0.0286,-0.0312,-0.0367,-0.0442,-0.0487,-0.0537,-0.0563,-0.056,-0.0537,-0.0525,-0.0441,-0.034,-0.022,-0.0086,0.0025,0.0097,0.0129,0.016,0.0155,0.0142,0.0118,0.014,0.0135,0.016,0.0159,0.0158,0.0158,0,-0.0301,-0.0346,-0.0404,-0.047,-0.0523,-0.0547,-0.0571,-0.0553,-0.0544,-0.0478,-0.0449,-0.0328,-0.0251,-0.0094,0.0003,0.0106,0.0105,0.0105,0.0103,0.0097,0.0111,0.0074,0.012,0,0,0,0,0,-0.0314,-0.0357,-0.0421,-0.0488,-0.0532,-0.0556,-0.0578,-0.0583,-0.056,-0.05,-0.047,-0.0357,-0.0185,-0.0116,-0.0007,0.0023,0.0119,0.0152,0.0117,0.0194,0.0187,0.022,0,0,0,0,0,0,-0.0323,-0.0382,-0.0421,-0.0476,-0.0512,-0.0552,-0.0564,-0.0552,-0.0516,-0.0482,-0.0392,-0.0341,-0.0176,-0.0243,-0.0008,0.0024,0.0013,0.0232,0.0234,0.0198,0.0191,0.0186,0.0217,0,0,0,0,0]}]]